Terminal Aerodrome Forecast
Issued by NWS

Home | Current Version | Previous Version | Graphics & Text | Print | Product List | Glossary On
Versions: 1 2 3 4 5 6 7 8 9 10 11 12 13 14 15 16 17 18 19 20 21
935
FTUS43 KGRB 300737 AAA
TAFAUW
TAF AMD
KAUW 300737Z 3008/3106 25003KT 6SM BR VCSH SCT009 BKN035
      TEMPO 3008/3012 3SM -SHRA BR BKN009
     FM301500 27006KT P6SM VCSH SCT010 OVC025
     FM301900 29007KT P6SM SCT035 BKN080
     FM302300 32004KT P6SM SCT040=

USA.gov is the U.S. government's official web portal to all federal, state and local government web resources and services.